Regional Weather Roundup
Issued by NWS

Home | Current Version | Previous Version | Text Only | Print | Product List | Glossary Off
Versions: 1 2 3 4 5 6 7 8 9 10 11 12 13 14 15 16 17 18 19 20 21 22 23 24 25 26 27 28 29 30 31 32 33 34 35 36 37 38 39 40 41 42 43 44 45 46 47 48 49 50

151
ASUS45 KTFX 301910
RWRMT
MONTANA REGIONAL WEATHER ROUNDUP
NATIONAL WEATHER SERVICE GREAT FALLS MT
100 PM MDT THU MAR 30 2017

NOTE: "FAIR" INDICATES FEW OR NO CLOUDS BELOW 12000 FEET WITH NO
SIGNIFICANT WEATHER AND/OR OBSTRUCTIONS TO VISIBILITY.

MTZ001>007-043-302000-
WEST OF THE DIVIDE

CITY           SKY/WX    TMP DP  RH WIND       PRES   REMARKS
KALISPELL      CLOUDY    47  36  65 N14G20    29.82R
MISSOULA       MOSUNNY   52  31  44 NW15      29.81F
BUTTE          CLOUDY    46  27  47 CALM      29.73F
MULLAN PASS    FOG       30  29  96 VRB3      29.85R VSB 3/4
ANACONDA         N/A     48  27  43 N13       29.75F
DEER LODGE       N/A     48  27  43 NW10G18   29.78S
EUREKA           N/A     48  32  53 CALM      29.85R
HAMILTON         N/A     50  27  40 N9        29.78S
PLAINS           N/A     49  30  48 W14       29.87R
RONAN            N/A     53  27  37 SW6       29.88R
THOMPSON FALLS   N/A     47  36  65 W8        29.94R
$$

MTZ008-052>055-302000-
SOUTHWEST MONTANA

CITY           SKY/WX    TMP DP  RH WIND       PRES   REMARKS
BOZEMAN        CLOUDY    48  39  71 S6        29.75F
DILLON         CLOUDY    48  35  60 NE12      29.70F
W YELLOWSTONE  CLOUDY    37  32  81 NE3       29.72F
ENNIS          CLOUDY    41  37  87 VRB3      29.76F
THREE FORKS      N/A     49  49 100 CALM      29.77F
TWIN BRIDGES     N/A     48  35  60 N13       29.74F
$$

MTZ009-010-012-014-046-048-049-054-302000-
EAST SLOPES AND CENTRAL MONTANA

CITY           SKY/WX    TMP DP  RH WIND       PRES   REMARKS
CUT BANK       SUNNY     56  23  27 W16G23    29.71F
GREAT FALLS    SUNNY     57  25  29 E6        29.71F
MALMSTROM AFB  MOSUNNY   55  31  39 E6        29.72F
HELENA         SUNNY     56  29  35 SW7       29.72F
AUGUSTA          N/A     51  22  32 NW6       29.73S
CHOTEAU          N/A     55  23  28 VRB6      29.74S
CONRAD           N/A     56  30  37 W6        29.77S
$$

MTZ011-013-016-021-045-047-050-051-302000-
NORTH CENTRAL MONTANA

CITY           SKY/WX    TMP DP  RH WIND       PRES   REMARKS
HAVRE          MOSUNNY   60  33  36 MISG      29.70F
LEWISTOWN      CLOUDY    50  33  52 VRB3      29.74S
N BAR RANCH    CLOUDY    45  37  76 CALM      29.78S HAZE
CHINOOK          N/A     59  34  38 N6        29.71S
FORT BENTON      N/A    N/A N/A N/A MISG      29.73F
GEYSER         PTSUNNY   51  32  48 NE12      29.73S
STANFORD       PTSUNNY   50  34  54 SE3       29.73F
$$

MTZ017>020-022>027-061-062-302000-
NORTHEAST MONTANA

CITY           SKY/WX    TMP DP  RH WIND       PRES   REMARKS
GLASGOW        PTSUNNY   61  34  36 NW8       29.69S
JORDAN           N/A     57  37  47 NW9       29.70S
SIDNEY         MOSUNNY   63  36  36 CALM      29.67F
WOLF POINT     MOSUNNY   65  36  34 SW6       29.67S
MALTA          SUNNY     61  32  33 N6        29.69F
PLENTYWOOD       N/A     63  34  34 SE10      29.68S
POPLAR           N/A     64  36  34 CALM      29.68S
SCOBEY           N/A     62  31  31 CALM      29.68F
$$

MTZ028>42-056>058-302000-
SOUTHCENTRAL AND SOUTHEAST MONTANA

CITY           SKY/WX    TMP DP  RH WIND       PRES   REMARKS
BAKER          CLOUDY    55  37  50 S10       29.70S
BILLINGS       LGT RAIN  46  40  79 NW7       29.74F
LIVINGSTON     CLOUDY    46  39  76 VRB3      29.74F
MILES CITY     LGT RAIN  56  40  55 SW8       29.69S
EKALAKA          N/A     51  41  69 S2        29.72S
FORSYTH          N/A     50  46  87 W10       29.71S
LAUREL           N/A     46  35  65 SW3       29.76S
$$

REGIONAL REPORTS...DAKOTAS

CITY           SKY/WX    TMP DP  RH WIND       PRES   REMARKS
WILLISTON      SUNNY     61  41  47 SE8       29.69F
MINOT          CLOUDY    56  39  53 S15       29.76R
DICKINSON      CLOUDY    54  37  52 S14       29.71S
BEACH          CLOUDY    59  37  44 SE10      29.71S
TIOGA          PTSUNNY   57  45  62 SE14      29.71F
WATFORD CITY     N/A     57  41  54 S9        29.69S
BISMARCK       CLOUDY    53  36  52 S14       29.82F
GRAND FORKS    MOSUNNY   52  42  69 S15G22    29.89F
FARGO          CLOUDY    54  40  59 CALM      29.88F
BUFFALO SD       N/A     59  38  45 SE18      29.65F
RAPID CITY     CLOUDY    51  38  60 SE17      29.74F
$$

REGIONAL REPORTS...WYOMING/IDAHO/WASHINGTON

CITY           SKY/WX    TMP DP  RH WIND       PRES   REMARKS
GILLETTE       CLOUDY    55  35  47 SE5       29.68F
SHERIDAN       LGT RAIN  50  44  80 N8        29.72S
BUFFALO WY     CLOUDY    53  32  44 N14G22    29.71S
CODY           CLOUDY    44  39  82 N16       29.72S
YELLOWSTONE LA   N/A     33  33 100 CALM      29.75S
IDAHO FALLS    PTSUNNY   50  40  68 VRB5      29.67F
SALMON         CLOUDY    46  37  71 NW3       29.70F
BOISE          LGT RAIN  36  35  96 NW29G38   29.75R FOG     WCI  23
SPOKANE        CLOUDY    43  35  73 SW3       29.94R
$$

REGIONAL REPORTS...ALBERTA

CITY           SKY/WX    TMP DP  RH WIND       PRES   REMARKS
EDMONTON       CLOUDY    37  36  93 N8        29.86R FOG     WCI  31
CALGARY        PTSUNNY   52  25  35 N14G23    29.76R
LETHBRIDGE     MOSUNNY   55  25  30 NW10G18   29.71S
MEDICINE HAT   MOSUNNY   59  30  33 NW7       29.69R
WATERTON GATE    N/A     50  21  32 SW18G31     N/A
CARDSTON         N/A     52  19  28 W12G18      N/A
MILK RIVER       N/A     57  18  21 NW14G20     N/A
ONEFOUR          N/A     57  28  33 NW13G21     N/A
$$

REGIONAL REPORTS...SASKATCHEWAN

CITY           SKY/WX    TMP DP  RH WIND       PRES   REMARKS
SWIFT CURRENT  SUNNY     57  34  41 NW5       29.68S
REGINA         PTSUNNY   57  30  35 E10       29.72S
SASKATOON      CLOUDY    37  34  87 NE14G20   29.85R WCI  29
CYPRESS HILLS    N/A     54  25  32 NW9         N/A
VAL MARIE        N/A     63  28  27 NW10G18     N/A
ROCKGLEN         N/A     59  30  33 N5          N/A
ASSINIBOIA       N/A     37  36  93 E7          N/A
$$




USA.gov is the U.S. government's official web portal to all federal, state and local government web resources and services.